カタログに戻る

SL-16 DEB

運用中LEO
NORAD 18416·DEBRIS·🇷🇺 Russia

打ち上げ Mar 18, 1987 から Baikonur Cosmodrome

Loading…

次のパス (今後24時間)

TLE

最新Source: Space-Track

元期: Sep 13, 2026, 22:36 UTC

1 18416U 87027C   26256.94231583  .00000013  00000-0  49901-4 0  9991
2 18416  71.0337  82.2613 0188285 326.8865 145.7624 13.77577537983916

AllMySatでSL-16 DEBをリアルタイム追跡

Download on the App Store